User: anonymous   Login
Location: Sternwarte Hubelmatt
(47.0367°N, 8.3053°E)
Time: 20:46:11
(UTC+02:00)
Language:

METEOR M2 - Orbit

View from above orbital plane
View from above orbital plane
View from above satellite
View from above satellite

Ground track
Ground track

The orbit data is extracted from the following two-line orbital elements,

1 40069U 14037A   24113.40271550  .00000603  00000-0  29778-3 0  9994
2 40069  98.4363 110.1379 0006277 149.9744 210.1794 14.20936859507706
Epoch (UTC): 22 April 2024 09:39:54
Eccentricity: 0.0006277
inclination: 98.4363°
perigee height: 817 km
apogee height: 827 km
right ascension of ascending node: 110.1379°
argument of perigee: 149.9744°
revolutions per day: 14.20936859
mean anomaly at epoch: 210.1794°
orbit number at epoch: 50770

The dashed part of the orbit path shows where the satellite is in the earth's shadow,  

DLR